ORBCOMM FM39 [-]

Last updated on July 6, 2021, 3:36 p.m. UTC

1 33063U 08031D   21186.86442494 -.00000019  00000-0  28335-4 0  9992
2 33063  48.4442 321.0550 0008343 323.5950  36.4394 14.72833638700870
UTC
Height (km)
Latitude
Longitude
Inclination
Orbital Period
UTC large
Height (km)
Speed (km/s)
/
Latitude / Longitude
Inclination (degrees)
Orbital Period (minutes)
Azimuth
Elevation
Range (km)
Doppler Factor
iOS Compass Heading
iOS Angle